Regional Weather Roundup
Issued by NWS

Home | Current Version | Previous Version | Text Only | Print | Product List | Glossary On
Versions: 1 2 3 4 5 6 7 8 9 10 11 12 13 14 15 16 17 18 19 20 21 22 23 24 25 26 27 28 29 30 31 32 33 34 35 36 37 38 39 40 41 42 43 44 45 46 47 48 49 50
866
ASUS45 KPSR 240810
RWRAZ

ARIZONA HOURLY REGIONAL WEATHER ROUNDUP
NATIONAL WEATHER SERVICE PHOENIX AZ
100 AM MST TUE MAY 24 2016

NOTE: FAIR INDICATES FEW OR NO CLOUDS BELOW 12,000 FEET WITH NO
SIGNIFICANT WEATHER AND/OR OBSTRUCTIONS TO VISIBILITY.

AZZ001>003-036-240900-
NORTHWEST ARIZONA

CITY           SKY/WX    TMP DP  RH WIND       PRES   REMARKS
BULLHEAD CITY  CLEAR     77  27  15 S12       29.71S
KINGMAN        CLEAR     56  17  21 S10       29.82R
$$

AZZ004>008-015-016-018-240900-
NORTH CENTRAL ARIZONA

CITY           SKY/WX    TMP DP  RH WIND       PRES   REMARKS
GRAND CANYON   CLEAR     45  21  38 S5        29.97S
WILLIAMS       CLEAR     50  19  29 S10       30.04S
PRESCOTT       CLEAR     52  24  33 S6        29.92F
FLAGSTAFF      CLEAR     40  22  48 CALM      29.99F
PAYSON         CLEAR     55  19  24 SE5       29.97S
PAGE           CLEAR     67  18  15 CALM      29.82R
$$

AZZ009>014-017-240900-
NORTHEAST ARIZONA

CITY           SKY/WX    TMP DP  RH WIND       PRES   REMARKS
WINSLOW        CLEAR     47  19  33 SW8       29.93S
SAINT JOHNS    CLEAR     49  27  42 S6        29.98S
WINDOW ROCK    CLEAR     49  15  25 S3        30.02S
SHOW LOW       CLEAR     48  23  37 S8        30.02S
$$

AZZ023-240900-
GREATER PHOENIX AREA

CITY           SKY/WX    TMP DP  RH WIND       PRES   REMARKS
PHOENIX        CLEAR     74  27  17 S7        29.77R
BUCKEYE        CLEAR     68  27  21 SW8       29.79R
LUKE AFB       CLEAR     71  32  23 SW14      29.76R
DEER VALLEY    CLEAR     73  28  18 SW8       29.78R
SCOTTSDALE     CLEAR     75  25  15 S3        29.80R
MESA-GATEWAY   CLEAR     72  21  15 S12       29.80S
$$

AZZ027-028-240900-
SOUTHWEST MARICOPA COUNTY AND PINAL COUNTY

CITY           SKY/WX    TMP DP  RH WIND       PRES   REMARKS
CASA GRANDE    CLEAR     68  27  21 SW7       29.82S
GILA BEND      FAIR      73  28  18 S13       29.77R
$$

AZZ503-504-507>509-240900-
SOUTHEAST ARIZONA

CITY           SKY/WX    TMP DP  RH WIND       PRES   REMARKS
TUCSON         CLEAR     70  24  17 SW5       29.89F
DAVIS-MONTHAN  CLEAR     66  25  21 S3        29.88S
NOGALES        CLEAR     62  24  23 SE8       29.95F
SIERRA VISTA   CLEAR     65  26  22 S10       29.99S
DOUGLAS        CLEAR     65  26  23 VRB3      29.97S
SAFFORD        CLEAR     69  21  16 NW12      29.86S
$$

AZZ020-021-025-026-031-240900-
SOUTHWEST ARIZONA

CITY           SKY/WX    TMP DP  RH WIND       PRES   REMARKS
YUMA           CLEAR     69  36  29 CALM      29.77S
$$

CAZ031-033-041-043-047-048-061-240900-
SOUTHERN CALIFORNIA

CITY           SKY/WX    TMP DP  RH WIND       PRES   REMARKS
DOWNTOWN L.A.  PTCLDY    59  52  77 CALM      29.92F
L.A. AIRPORT   PTCLDY    58  52  80 SW6       29.93S
SAN DIEGO      MOCLDY    63  51  65 SE7       29.96F
BURBANK        CLOUDY    58  51  78 SE6       29.92R
ONTARIO        MOCLDY    58  48  69 SW8       29.92F
RIVERSIDE      CLEAR     57  48  72 NE3       29.93S
PALM SPRINGS   CLEAR     68  43  40 NW17G23   29.78R
EL CENTRO NAS  CLEAR     66  38  35 W26       29.79R
IMPERIAL       CLEAR     67  38  34 W17G31    29.76R HAZE
BLYTHE         CLEAR     70  47  43 S18       29.73R
NEEDLES        CLEAR     77  31  18 SW14      29.70R
$$

NVZ020-UTZ003-240900-
SOUTHERN NEVADA-UTAH

CITY           SKY/WX    TMP DP  RH WIND       PRES   REMARKS
LAS VEGAS      PTCLDY    69  33  26 SW21G32   29.68F
SALT LAKE CITY MOCLDY    54  40  59 CALM      29.81S
$$

NMZ009-TXZ055-240900-
NEW MEXICO-WEST TEXAS

CITY           SKY/WX    TMP DP  RH WIND       PRES   REMARKS
ALBUQUERQUE    CLEAR     59  16  18 SE7       29.94F
EL PASO        PTCLDY    78  17  10 W21G35    29.90S
$$


........................KEY........................
SKY/WX - SKY CONDITION/WEATHER
TMP    - TEMPERATURE IN FAHRENHEIT
DP     - DEW POINT IN FAHRENHEIT
RH     - RELATIVE HUMIDITY IN PERCENT
WIND   - DIRECTION AND SPEED IN MILES PER HOUR (MPH)
VRB    - VARIABLE WIND DIRECTION
PRES   - MEAN SEA LEVEL PRESSURE IN INCHES OF MERCURY
         F - FALLING PRESSURE   R - RISING PRESSURE
         S - STEADY PRESSURE
VSB    - VISIBILITY IN MILES
HX     - HEAT INDEX IN FAHRENHEIT
WCI    - WIND CHILL INDEX IN FAHRENHEIT
TC     - TEMPERATURE IN CELSIUS WHICH IS ALSO KNOWN AS
         TEMPERATURE IN CENTIGRADE
AFB    - AIR FORCE BASE
         LUKE AFB IS LUKE AIR FORCE BASE
         DAVIS-MONTHAN IS DAVIS-MONTHAN AIR FORCE BASE
NAS    - NAVAL AIR STATION
         EL CENTRO NAS IS EL CENTRO NAVAL AIR STATION
N/A    - NOT AVAILABLE





USA.gov is the U.S. government's official web portal to all federal, state and local government web resources and services.